PSZ309 UUBW-URSS

Flight info

Callsign PSZ309
Flight time N/A
Altitude 33000
Route LINRU2W LINRU L4 EKTUT N72 UMSIS N166 ADNET W79 BINOL BINOL1K
Aircraft MD11/H-SDE1E2E3FGHIJ2J3J4J5M1RWXY/LB1D1

Departure

Time 2026-04-17 13:05
Airport Zhukovsky International Airport (UUBW)

Arrival

Time N/A
Airport Sochi International Airport (URSS)
Time Latitude Longitude Altitude Speed Heading
2026-04-17 12:37 55.56033 38.12454 386 ft 0 kts 132°
2026-04-17 12:57 55.56036 38.12447 386 ft 2 kts 132°
2026-04-17 12:57 55.56047 38.12427 386 ft 2 kts 132°
2026-04-17 12:58 55.56057 38.12408 386 ft 2 kts 132°
2026-04-17 12:58 55.56063 38.12395 386 ft 2 kts 128°
2026-04-17 12:58 55.56070 38.12372 386 ft 2 kts 105°
2026-04-17 12:58 55.56072 38.12346 386 ft 2 kts 87°
2026-04-17 12:59 55.56070 38.12320 386 ft 2 kts 68°
2026-04-17 12:59 55.56062 38.12297 386 ft 2 kts 49°
2026-04-17 12:59 55.56057 38.12287 386 ft 1 kts 40°
2026-04-17 12:59 55.56055 38.12284 386 ft 0 kts 41°
2026-04-17 13:01 55.56056 38.12285 386 ft 0 kts 41°
2026-04-17 13:02 55.56060 38.12293 386 ft 1 kts 41°
2026-04-17 13:02 55.56071 38.12309 386 ft 2 kts 41°
2026-04-17 13:02 55.56092 38.12342 386 ft 5 kts 41°
2026-04-17 13:02 55.56127 38.12397 386 ft 7 kts 41°
2026-04-17 13:03 55.56170 38.12479 386 ft 10 kts 58°
2026-04-17 13:03 55.56159 38.12609 386 ft 12 kts 126°
2026-04-17 13:03 55.56112 38.12747 386 ft 14 kts 91°
2026-04-17 13:03 55.56172 38.12894 386 ft 16 kts 41°
2026-04-17 13:04 55.56233 38.13048 386 ft 13 kts 86°
2026-04-17 13:04 55.56190 38.13189 386 ft 13 kts 130°
2026-04-17 13:04 55.56068 38.13421 386 ft 54 kts 133°
2026-04-17 13:04 55.55655 38.14236 386 ft 120 kts 132°
2026-04-17 13:05 55.54971 38.15589 387 ft 173 kts 132°
2026-04-17 13:05 55.54100 38.17354 487 ft 199 kts 133°
2026-04-17 13:05 55.53260 38.19133 1134 ft 191 kts 126°
2026-04-17 13:05 55.52627 38.21200 1660 ft 192 kts 114°
2026-04-17 13:06 55.52160 38.23422 2172 ft 194 kts 114°
2026-04-17 13:06 55.51617 38.25613 2651 ft 196 kts 118°
2026-04-17 13:06 55.51008 38.27739 3127 ft 197 kts 120°
2026-04-17 13:06 55.50366 38.29892 3567 ft 202 kts 121°
2026-04-17 13:07 55.49701 38.32238 3720 ft 226 kts 110°
2026-04-17 13:07 55.49560 38.35033 4022 ft 242 kts 79°
2026-04-17 13:07 55.50257 38.37789 4541 ft 252 kts 47°
2026-04-17 13:07 55.51668 38.39625 5113 ft 257 kts 18°
2026-04-17 13:08 55.53419 38.40244 5720 ft 261 kts 359°
2026-04-17 13:08 55.55222 38.40025 6406 ft 262 kts 343°
2026-04-17 13:08 55.56902 38.38798 6945 ft 268 kts 319°
2026-04-17 13:08 55.58146 38.36315 7460 ft 271 kts 292°
2026-04-17 13:09 55.58860 38.33257 8115 ft 276 kts 287°
2026-04-17 13:09 55.59502 38.30013 8872 ft 280 kts 283°
2026-04-17 13:09 55.59986 38.26687 9643 ft 283 kts 277°
2026-04-17 13:09 55.60377 38.23322 10454 ft 285 kts 277°
2026-04-17 13:10 55.60792 38.19882 11246 ft 289 kts 278°
2026-04-17 13:10 55.61213 38.16433 11990 ft 291 kts 275°
2026-04-17 13:10 55.61369 38.12888 12708 ft 289 kts 262°
2026-04-17 13:10 55.61094 38.09386 13448 ft 288 kts 255°
2026-04-17 13:11 55.60709 38.05938 14182 ft 290 kts 255°
2026-04-17 13:11 55.60171 38.02537 14806 ft 288 kts 239°
2026-04-17 13:11 55.58959 37.99768 15421 ft 285 kts 216°
2026-04-17 13:11 55.57276 37.97950 16046 ft 287 kts 207°
2026-04-17 13:12 55.55498 37.96341 16679 ft 290 kts 207°
2026-04-17 13:12 55.51625 37.94182 17844 ft 298 kts 189°
2026-04-17 13:12 55.49572 37.93750 18457 ft 301 kts 189°
2026-04-17 13:13 55.47477 37.93287 19042 ft 304 kts 189°
2026-04-17 13:13 55.45381 37.92790 19634 ft 306 kts 189°
2026-04-17 13:13 55.43277 37.92277 20216 ft 308 kts 190°
2026-04-17 13:13 55.41152 37.91749 20782 ft 311 kts 190°
2026-04-17 13:14 55.39010 37.91388 21298 ft 315 kts 181°
2026-04-17 13:14 55.36824 37.91842 21813 ft 321 kts 169°
2026-04-17 13:14 55.34657 37.92857 22364 ft 324 kts 168°
2026-04-17 13:14 55.32500 37.93887 22881 ft 326 kts 169°
2026-04-17 13:15 55.30304 37.94891 23376 ft 329 kts 169°
2026-04-17 13:15 55.28063 37.95894 23889 ft 332 kts 169°
2026-04-17 13:15 55.25818 37.96892 24380 ft 334 kts 169°
2026-04-17 13:15 55.23566 37.97867 24839 ft 336 kts 173°
2026-04-17 13:16 55.21279 37.98072 25190 ft 333 kts 192°
2026-04-17 13:16 55.19072 37.96946 25648 ft 330 kts 203°
2026-04-17 13:16 55.16940 37.95410 26102 ft 332 kts 203°
2026-04-17 13:16 55.14787 37.93941 26543 ft 334 kts 202°
2026-04-17 13:17 55.12620 37.92531 26931 ft 336 kts 201°
2026-04-17 13:17 55.10412 37.91204 27513 ft 332 kts 198°
2026-04-17 13:17 55.08156 37.90411 27957 ft 332 kts 188°
2026-04-17 13:17 55.05828 37.90019 28423 ft 330 kts 189°
2026-04-17 13:18 55.03557 37.89600 28830 ft 329 kts 189°
2026-04-17 13:18 55.01260 37.89241 29108 ft 325 kts 184°
2026-04-17 13:18 54.96814 37.90485 29126 ft 327 kts 166°
2026-04-17 13:19 54.92524 37.92967 29121 ft 323 kts 167°
2026-04-17 13:19 54.88170 37.95369 29109 ft 335 kts 167°
2026-04-17 13:20 54.85890 37.96606 28720 ft 358 kts 167°
2026-04-17 13:20 54.83418 37.97941 28387 ft 378 kts 167°
2026-04-17 13:20 54.80871 37.99289 28533 ft 386 kts 167°
2026-04-17 13:20 54.78275 38.00656 28700 ft 395 kts 167°
2026-04-17 13:21 54.75583 38.02068 28877 ft 403 kts 167°
2026-04-17 13:21 54.72887 38.03484 29017 ft 413 kts 167°
2026-04-17 13:21 54.67256 38.06450 29267 ft 431 kts 167°
2026-04-17 13:22 54.64366 38.07988 29382 ft 441 kts 166°
2026-04-17 13:22 54.61411 38.09566 29482 ft 450 kts 166°
2026-04-17 13:22 54.55298 38.12826 29696 ft 469 kts 166°
2026-04-17 13:23 54.52153 38.14504 29842 ft 477 kts 166°
2026-04-17 13:23 54.48972 38.16202 30358 ft 476 kts 166°
2026-04-17 13:23 54.45828 38.17874 31010 ft 473 kts 166°
2026-04-17 13:23 54.42699 38.19535 31431 ft 473 kts 166°
2026-04-17 13:24 54.39570 38.21195 31849 ft 472 kts 166°
2026-04-17 13:24 54.36399 38.22878 32262 ft 472 kts 166°
2026-04-17 13:24 54.33276 38.24525 32599 ft 472 kts 167°
2026-04-17 13:24 54.30127 38.25921 32903 ft 471 kts 169°
2026-04-17 13:25 54.23733 38.28543 32983 ft 472 kts 169°
2026-04-17 13:25 54.17342 38.31233 33004 ft 470 kts 169°
2026-04-17 13:26 54.11018 38.33939 33016 ft 475 kts 169°
2026-04-17 13:26 54.04553 38.36711 33004 ft 484 kts 169°
2026-04-17 13:27 53.98050 38.39504 33010 ft 480 kts 168°
2026-04-17 13:27 53.91571 38.42284 33005 ft 470 kts 169°
2026-04-17 13:28 53.85246 38.44990 33008 ft 470 kts 169°
2026-04-17 13:28 53.81211 38.46717 33011 ft 471 kts 168°